^^
Station Historical Data
Daily Summary for January 31, 2018 Units:  Metric    English   Both
« Previous Day
Next Day »
Daily Weekly Monthly Yearly Custom
  High: Low: Average:
Temperature: -17.8 °C 15.2 °C 26.2 °C
Dew Point: -17.8 °C 0.3 °C 3.3 °C
Humidity: Humidity% 11% 25%
Wind Speed: 0km/h 0km/h 2.4km/h
Wind Gust: 0km/h - -
Wind- - SW
Pressure: 0 hPa 997.2 hPa -
Precipitation: 0 mm    
Historical Graphs
 
 
Tabular Data for January 31, 2018
Time Temperature Dew Point Pressure Wind Wind Speed Wind Gust Humidity Rainfall Rate (Hourly) solar Conditions
-17.8 °C -17.8 °C 0 hPa Calm     Humidity% 0 mm SolarRadiationWatts/m^2 W/m2 Conditions
00:02 23.2 °C 1.5 °C 1003.3 hPa Calm   1.6 km/h 24% 0 mm 0.0 W/m2
00:08 23.1 °C 1.4 °C 1003.3 hPa Calm   3.2 km/h 24% 0 mm 0.0 W/m2
00:13 22.9 °C 1.3 °C 1002.9 hPa Calm     24% 0 mm 0.0 W/m2
00:18 22.8 °C 1.2 °C 1002.9 hPa Calm     24% 0 mm 0.0 W/m2
00:24 22.7 °C 1.7 °C 1002.9 hPa Calm     25% 0 mm 0.0 W/m2
00:29 22.5 °C 1.5 °C 1002.9 hPa Calm   1.6 km/h 25% 0 mm 0.0 W/m2
00:34 22.3 °C 1.3 °C 1003.3 hPa NNW 4.7 km/h 6.4 km/h 25% 0 mm 0.0 W/m2
00:40 22.2 °C 1.8 °C 1003.3 hPa West 1.4 km/h 12.9 km/h 26% 0 mm 0.0 W/m2
00:45 22.2 °C 1.8 °C 1003.3 hPa North 3.2 km/h 11.3 km/h 26% 0 mm 0.0 W/m2
00:50 22.3 °C 1.3 °C 1002.9 hPa NNE 4.7 km/h 9.7 km/h 25% 0 mm 0.0 W/m2
00:55 22.4 °C 1.4 °C 1002.9 hPa Calm     25% 0 mm 0.0 W/m2
01:00 22.4 °C 1.4 °C 1002.9 hPa Calm     25% 0 mm 0.0 W/m2
01:06 22.3 °C 1.9 °C 1003.3 hPa Calm   1.6 km/h 26% 0 mm 0.0 W/m2
01:11 22.2 °C 1.8 °C 1003.3 hPa NNW 3.2 km/h 4.8 km/h 26% 0 mm 0.0 W/m2
01:16 22.1 °C 1.7 °C 1003.3 hPa NNE 4.7 km/h 6.4 km/h 26% 0 mm 0.0 W/m2
01:22 22.1 °C 1.7 °C 1002.9 hPa Calm     26% 0 mm 0.0 W/m2
01:27 22 °C 1.6 °C 1002.9 hPa SSE 1.4 km/h 3.2 km/h 26% 0 mm 0.0 W/m2
01:32 21.9 °C 1.5 °C 1002.9 hPa Calm   6.4 km/h 26% 0 mm 0.0 W/m2
01:37 21.8 °C 1.4 °C 1003.3 hPa Calm     26% 0 mm 0.0 W/m2
01:42 21.7 °C 1.9 °C 1003.3 hPa SE 1.4 km/h 1.6 km/h 27% 0 mm 0.0 W/m2
01:47 21.6 °C 1.8 °C 1002.9 hPa Calm     27% 0 mm 0.0 W/m2
01:52 21.4 °C 2.1 °C 1002.9 hPa Calm     28% 0 mm 0.0 W/m2
01:57 21.3 °C 2 °C 1002.9 hPa Calm   1.6 km/h 28% 0 mm 0.0 W/m2
02:03 21.2 °C 2.5 °C 1002.9 hPa Calm     29% 0 mm 0.0 W/m2
02:08 21.1 °C 2.8 °C 1002.6 hPa Calm   1.6 km/h 30% 0 mm 0.0 W/m2
02:13 20.9 °C 2.7 °C 1002.6 hPa Calm     30% 0 mm 0.0 W/m2
02:18 20.8 °C 3 °C 1002.6 hPa Calm     31% 0 mm 0.0 W/m2
02:23 20.7 °C 3 °C 1002.6 hPa Calm     31% 0 mm 0.0 W/m2
02:28 20.6 °C 3.3 °C 1002.6 hPa Calm     32% 0 mm 0.0 W/m2
02:33 20.4 °C 3.1 °C 1002.6 hPa Calm     32% 0 mm 0.0 W/m2
02:38 20.3 °C 3.1 °C 1002.6 hPa Calm     32% 0 mm 0.0 W/m2
02:44 20.2 °C 3 °C 1002.6 hPa Calm     32% 0 mm 0.0 W/m2
02:49 20.1 °C 2.9 °C 1002.6 hPa Calm     32% 0 mm 0.0 W/m2
02:54 19.9 °C 2.7 °C 1002.6 hPa Calm     32% 0 mm 0.0 W/m2
02:59 19.7 °C 3 °C 1002.6 hPa Calm     33% 0 mm 0.0 W/m2
03:04 19.6 °C 3.3 °C 1002.6 hPa Calm     34% 0 mm 0.0 W/m2
03:09 19.4 °C 3.1 °C 1002.6 hPa Calm     34% 0 mm 0.0 W/m2
03:15 19.2 °C 2.5 °C 1002.3 hPa Calm     33% 0 mm 0.0 W/m2
03:21 19.1 °C 2.9 °C 1002.3 hPa Calm     34% 0 mm 0.0 W/m2
03:26 18.9 °C 2.7 °C 1002.3 hPa Calm     34% 0 mm 0.0 W/m2
03:31 18.7 °C 2.5 °C 1002.3 hPa SE 1.4 km/h 1.6 km/h 34% 0 mm 0.0 W/m2
03:36 18.5 °C 2.7 °C 1001.9 hPa Calm   1.6 km/h 35% 0 mm 0.0 W/m2
03:41 18.4 °C 2.7 °C 1001.9 hPa Calm     35% 0 mm 0.0 W/m2
03:46 18.3 °C 3 °C 1001.9 hPa Calm     36% 0 mm 0.0 W/m2
03:51 18.2 °C 2.9 °C 1001.9 hPa Calm   1.6 km/h 36% 0 mm 0.0 W/m2
03:57 18.1 °C 2.8 °C 1001.9 hPa Calm     36% 0 mm 0.0 W/m2
04:02 17.9 °C 3 °C 1001.9 hPa Calm     37% 0 mm 0.0 W/m2
04:07 17.8 °C 2.9 °C 1001.9 hPa Calm     37% 0 mm 0.0 W/m2
04:13 17.7 °C 3.2 °C 1001.9 hPa Calm     38% 0 mm 0.0 W/m2
04:18 17.6 °C 3.1 °C 1001.9 hPa Calm     38% 0 mm 0.0 W/m2
04:23 17.5 °C 3.4 °C 1001.9 hPa Calm     39% 0 mm 0.0 W/m2
04:28 17.3 °C 3.2 °C 1001.9 hPa Calm     39% 0 mm 0.0 W/m2
04:33 17.2 °C 3.5 °C 1001.9 hPa Calm     40% 0 mm 0.0 W/m2
04:39 17 °C 3.6 °C 1001.9 hPa Calm     41% 0 mm 0.0 W/m2
04:44 16.9 °C 3.6 °C 1001.9 hPa Calm     41% 0 mm 0.0 W/m2
04:49 16.8 °C 3.5 °C 1001.9 hPa Calm   3.2 km/h 41% 0 mm 0.0 W/m2
04:55 16.7 °C 3 °C 1001.9 hPa ENE 3.2 km/h 4.8 km/h 40% 0 mm 0.0 W/m2
05:00 16.6 °C 2.6 °C 1001.9 hPa Calm   3.2 km/h 39% 0 mm 0.0 W/m2
05:05 16.6 °C 2.9 °C 1001.9 hPa Calm     40% 0 mm 0.0 W/m2
05:11 16.4 °C 2.8 °C 1001.9 hPa Calm   3.2 km/h 40% 0 mm 0.0 W/m2
05:16 16.4 °C 3.1 °C 1001.9 hPa Calm     41% 0 mm 0.0 W/m2
05:21 16.3 °C 3.4 °C 1001.9 hPa East 3.2 km/h 4.8 km/h 42% 0 mm 0.0 W/m2
05:27 16.2 °C 2.9 °C 1001.9 hPa Calm   1.6 km/h 41% 0 mm 0.0 W/m2
05:32 16.2 °C 2.9 °C 1001.9 hPa SE 3.2 km/h 4.8 km/h 41% 0 mm 0.0 W/m2
05:37 16.2 °C 2.9 °C 1001.9 hPa Calm   3.2 km/h 41% 0 mm 0.0 W/m2
05:42 16.2 °C 2.9 °C 1001.9 hPa Calm     41% 0 mm 0.0 W/m2
05:47 16.1 °C 3.2 °C 1002.3 hPa Calm     42% 0 mm 0.0 W/m2
05:53 16 °C 3.4 °C 1002.3 hPa Calm   3.2 km/h 43% 0 mm 0.0 W/m2
05:58 15.9 °C 3.3 °C 1001.9 hPa Calm     43% 0 mm 0.0 W/m2
06:03 15.9 °C 3.3 °C 1002.3 hPa Calm     43% 0 mm 0.0 W/m2
06:09 15.8 °C 2.9 °C 1001.9 hPa Calm     42% 0 mm 0.0 W/m2
06:14 15.7 °C 2.8 °C 1002.3 hPa Calm   3.2 km/h 42% 0 mm 0.0 W/m2
06:19 15.6 °C 3.1 °C 1002.3 hPa Calm   4.8 km/h 43% 0 mm 0.0 W/m2
06:24 15.5 °C 3 °C 1002.3 hPa Calm   1.6 km/h 43% 0 mm 0.0 W/m2
06:29 15.4 °C 2.9 °C 1002.3 hPa Calm   1.6 km/h 43% 0 mm 0.0 W/m2
06:34 15.3 °C 2.8 °C 1002.3 hPa Calm   6.4 km/h 43% 0 mm 5.0 W/m2
06:39 15.3 °C 2.8 °C 1002.6 hPa Calm   1.6 km/h 43% 0 mm 7.0 W/m2
06:44 15.2 °C 2.7 °C 1002.6 hPa East 1.4 km/h 1.6 km/h 43% 0 mm 7.0 W/m2
06:50 15.2 °C 3.3 °C 1002.6 hPa SE 3.2 km/h 6.4 km/h 45% 0 mm 11.0 W/m2
06:55 15.2 °C 3.7 °C 1002.6 hPa Calm     46% 0 mm 14.0 W/m2
07:00 15.2 °C 4 °C 1002.6 hPa Calm   6.4 km/h 47% 0 mm 14.0 W/m2
07:06 15.3 °C 4.1 °C 1002.6 hPa Calm   1.6 km/h 47% 0 mm 18.0 W/m2
07:11 15.3 °C 4.1 °C 1002.6 hPa Calm     47% 0 mm 21.0 W/m2
07:16 15.3 °C 4.1 °C 1002.6 hPa Calm   1.6 km/h 47% 0 mm 21.0 W/m2
07:22 15.5 °C 4.2 °C 1002.6 hPa Calm   1.6 km/h 47% 0 mm 26.0 W/m2
07:27 15.6 °C 4.3 °C 1002.6 hPa Calm     47% 0 mm 28.0 W/m2
07:29 15.6 °C 4.6 °C 1002.6 hPa Calm     48% 0 mm 30.0 W/m2
07:34 15.8 °C 4.8 °C 1002.6 hPa Calm     48% 0 mm 32.0 W/m2
07:39 16.1 °C 5.1 °C 1002.6 hPa Calm     48% 0 mm 35.0 W/m2
07:44 16.3 °C 5 °C 1002.6 hPa SE 1.4 km/h 3.2 km/h 47% 0 mm 39.0 W/m2
07:49 16.8 °C 4.5 °C 1002.6 hPa Calm     44% 0 mm 56.0 W/m2
07:54 17.1 °C 4.7 °C 1002.6 hPa Calm     44% 0 mm 49.0 W/m2
07:59 17.3 °C 4.9 °C 1002.6 hPa Calm     44% 0 mm 63.0 W/m2
08:05 17.7 °C 4.6 °C 1002.3 hPa Calm     42% 0 mm 107.0 W/m2
08:10 18.1 °C 5.3 °C 1002.3 hPa Calm     43% 0 mm 308.0 W/m2
08:16 18.8 °C 3.8 °C 1002.3 hPa SE 1.4 km/h 11.3 km/h 37% 0 mm 378.0 W/m2
08:21 19.8 °C 3.9 °C 1001.9 hPa ESE 4.7 km/h 14.5 km/h 35% 0 mm 315.0 W/m2
08:26 20.9 °C 4 °C 1002.3 hPa SSW 4.7 km/h 11.3 km/h 33% 0 mm 417.0 W/m2
08:31 21.8 °C 4.4 °C 1002.3 hPa SSW 1.4 km/h 9.7 km/h 32% 0 mm 422.0 W/m2
08:36 22.5 °C 4.1 °C 1002.3 hPa SW 7.9 km/h 12.9 km/h 30% 0 mm 489.0 W/m2
08:41 23 °C 4.5 °C 1002.3 hPa Calm   8 km/h 30% 0 mm 450.0 W/m2
08:46 23.5 °C 4.4 °C 1001.9 hPa SW 1.4 km/h 11.3 km/h 29% 0 mm 436.0 W/m2
08:51 23.9 °C 4.3 °C 1001.9 hPa SSW 4.7 km/h 9.7 km/h 28% 0 mm 515.0 W/m2
08:56 24.4 °C 4.2 °C 1001.9 hPa ESE 1.4 km/h 4.8 km/h 27% 0 mm 524.0 W/m2
09:01 24.8 °C 4 °C 1001.9 hPa Calm   9.7 km/h 26% 0 mm 564.0 W/m2
09:06 25 °C 4.7 °C 1001.9 hPa WSW 3.2 km/h 14.5 km/h 27% 0 mm 584.0 W/m2
09:12 24.9 °C 4.6 °C 1001.9 hPa SSW 7.9 km/h 9.7 km/h 27% 0 mm 603.0 W/m2
09:18 25.2 °C 4.3 °C 1001.9 hPa West 1.4 km/h 9.7 km/h 26% 0 mm 624.0 W/m2
09:23 25.3 °C 4.4 °C 1001.9 hPa SSW 7.9 km/h 9.7 km/h 26% 0 mm 631.0 W/m2
09:28 25.6 °C 4.7 °C 1001.9 hPa WSW 4.7 km/h 6.4 km/h 26% 0 mm 657.0 W/m2
09:33 25.7 °C 4.8 °C 1001.9 hPa WSW 7.9 km/h 9.7 km/h 26% 0 mm 675.0 W/m2
09:38 25.9 °C 4.9 °C 1001.9 hPa South 1.4 km/h 9.7 km/h 26% 0 mm 693.0 W/m2
09:43 26.2 °C 5.2 °C 1001.9 hPa SW 3.2 km/h 8 km/h 26% 0 mm 714.0 W/m2
09:48 26.1 °C 4.5 °C 1001.6 hPa WSW 4.7 km/h 9.7 km/h 25% 0 mm 726.0 W/m2
09:53 26.3 °C 4.7 °C 1001.6 hPa SSW 3.2 km/h 9.7 km/h 25% 0 mm 745.0 W/m2
09:58 26.6 °C 5 °C 1001.6 hPa SSW 1.4 km/h 8 km/h 25% 0 mm 761.0 W/m2
10:03 26.9 °C 4.6 °C 1001.6 hPa SW 9.7 km/h 9.7 km/h 24% 0 mm 777.0 W/m2
10:08 27.2 °C 4.3 °C 1001.6 hPa West 4.7 km/h 11.3 km/h 23% 0 mm 793.0 W/m2
10:13 27.2 °C 4.3 °C 1001.6 hPa Calm   8 km/h 23% 0 mm 807.0 W/m2
10:19 27.6 °C 4.6 °C 1001.6 hPa SSE 1.4 km/h 16.1 km/h 23% 0 mm 823.0 W/m2
10:24 27.8 °C 4.8 °C 1001.6 hPa SW 3.2 km/h 6.4 km/h 23% 0 mm 840.0 W/m2
10:30 28.1 °C 4.4 °C 1001.6 hPa West 1.4 km/h 8 km/h 22% 0 mm 863.0 W/m2
10:35 28.2 °C 4.5 °C 1001.6 hPa Calm   8 km/h 22% 0 mm 879.0 W/m2
10:40 28.3 °C 4.5 °C 1001.2 hPa WSW 3.2 km/h 8 km/h 22% 0 mm 904.0 W/m2
10:45 28.8 °C 5 °C 1001.2 hPa SE 1.4 km/h 11.3 km/h 22% 0 mm 916.0 W/m2
10:50 29 °C 5.1 °C 1001.2 hPa West 3.2 km/h 8 km/h 22% 0 mm 448.0 W/m2
10:55 29.2 °C 4.6 °C 1001.2 hPa North 1.4 km/h 6.4 km/h 21% 0 mm 865.0 W/m2
11:01 29.8 °C 4.4 °C 1001.2 hPa WSW 1.4 km/h 8 km/h 20% 0 mm 933.0 W/m2
11:06 29.7 °C 4.3 °C 1001.2 hPa WNW 7.9 km/h 12.9 km/h 20% 0 mm 940.0 W/m2
11:11 29.6 °C 5 °C 1001.2 hPa South 1.4 km/h 11.3 km/h 21% 0 mm 868.0 W/m2
11:17 29.8 °C 4.4 °C 1001.2 hPa West 3.2 km/h 11.3 km/h 20% 0 mm 960.0 W/m2
11:22 30.1 °C 4.7 °C 1001.2 hPa SE 1.4 km/h 4.8 km/h 20% 0 mm 984.0 W/m2
11:27 30.6 °C 4.3 °C 1000.9 hPa West 1.4 km/h 8 km/h 19% 0 mm 995.0 W/m2
11:32 30.8 °C 4.5 °C 1000.9 hPa South 14.3 km/h 27.4 km/h 19% 0 mm 995.0 W/m2
11:37 30.8 °C 4.5 °C 1000.9 hPa Calm   8 km/h 19% 0 mm 1005.0 W/m2
11:42 31.1 °C 4.8 °C 1000.9 hPa SE 1.4 km/h 6.4 km/h 19% 0 mm 1013.0 W/m2
11:47 31.2 °C 4.8 °C 1000.9 hPa SSW 4.7 km/h 11.3 km/h 19% 0 mm 1011.0 W/m2
11:52 31.4 °C 4.2 °C 1000.9 hPa SW 6.4 km/h 6.4 km/h 18% 0 mm 1013.0 W/m2
11:58 31.5 °C 4.3 °C 1000.9 hPa SW 4.7 km/h 12.9 km/h 18% 0 mm 1025.0 W/m2
12:03 31.4 °C 4.2 °C 1000.9 hPa WSW 6.4 km/h 11.3 km/h 18% 0 mm 1027.0 W/m2
12:09 31.4 °C 4.2 °C 1000.9 hPa Calm   3.2 km/h 18% 0 mm 1025.0 W/m2
12:14 31.8 °C 4.6 °C 1000.9 hPa West 7.9 km/h 14.5 km/h 18% 0 mm 1039.0 W/m2
12:19 31.8 °C 4.6 °C 1000.9 hPa SW 3.2 km/h 14.5 km/h 18% 0 mm 1046.0 W/m2
12:24 31.8 °C 4.6 °C 1000.9 hPa NNW 1.4 km/h 6.4 km/h 18% 0 mm 1053.0 W/m2
12:29 32.1 °C 4 °C 1000.6 hPa North 6.4 km/h 9.7 km/h 17% 0 mm 1056.0 W/m2
12:34 32.5 °C 4.3 °C 1000.6 hPa Calm   3.2 km/h 17% 0 mm 1069.0 W/m2
12:39 32.9 °C 3.8 °C 1000.6 hPa WSW 6.4 km/h 14.5 km/h 16% 0 mm 925.0 W/m2
12:45 33.2 °C 2.1 °C 1000.6 hPa NNE 9.7 km/h 11.3 km/h 14% 0 mm 1076.0 W/m2
12:50 33.3 °C 1.2 °C 1000.6 hPa NNW 4.7 km/h 6.4 km/h 13% 0 mm 1048.0 W/m2
12:55 33.6 °C 0.3 °C 1000.6 hPa WSW 3.2 km/h 9.7 km/h 12% 0 mm 1065.0 W/m2
13:00 33.8 °C 1.5 °C 1000.6 hPa West 1.4 km/h 8 km/h 13% 0 mm 1076.0 W/m2
13:05 33.9 °C 2.7 °C 1000.2 hPa WSW 6.4 km/h 6.4 km/h 14% 0 mm 1074.0 W/m2
13:10 33.7 °C 2.5 °C 1000.2 hPa West 7.9 km/h 8 km/h 14% 0 mm 1078.0 W/m2
13:15 33.8 °C 2.6 °C 1000.2 hPa North 7.9 km/h 12.9 km/h 14% 0 mm 1095.0 W/m2
13:20 34.1 °C 2.8 °C 1000.2 hPa WNW 6.4 km/h 9.7 km/h 14% 0 mm 1032.0 W/m2
13:25 34.2 °C 2.9 °C 1000.2 hPa Calm   8 km/h 14% 0 mm 1088.0 W/m2
13:30 34.3 °C 3 °C 1000.2 hPa West 3.2 km/h 11.3 km/h 14% 0 mm 1067.0 W/m2
13:36 34.2 °C 1.9 °C 1000.2 hPa NNW 3.2 km/h 4.8 km/h 13% 0 mm 1076.0 W/m2
13:41 34.2 °C 1.9 °C 999.9 hPa WSW 4.7 km/h 4.8 km/h 13% 0 mm 1048.0 W/m2
13:46 34.1 °C 1.8 °C 1000.2 hPa SE 6.4 km/h 14.5 km/h 13% 0 mm 1023.0 W/m2
13:51 34.1 °C 1.8 °C 1000.2 hPa West 7.9 km/h 9.7 km/h 13% 0 mm 1039.0 W/m2
13:56 34.1 °C 0.7 °C 999.9 hPa Calm   8 km/h 12% 0 mm 993.0 W/m2
14:01 34.2 °C 0.7 °C 999.9 hPa NNW 4.7 km/h 4.8 km/h 12% 0 mm 949.0 W/m2
14:06 34.4 °C 0.9 °C 999.9 hPa West 1.4 km/h 11.3 km/h 12% 0 mm 1053.0 W/m2
14:11 34.7 °C 1.1 °C 999.9 hPa NW 1.4 km/h 11.3 km/h 12% 0 mm 1046.0 W/m2
14:16 34.9 °C 1.3 °C 999.5 hPa Calm   6.4 km/h 12% 0 mm 1025.0 W/m2
14:21 34.9 °C 1.3 °C 999.9 hPa North 6.4 km/h 12.9 km/h 12% 0 mm 1018.0 W/m2
14:27 34.9 °C 1.3 °C 999.5 hPa NE 1.4 km/h 4.8 km/h 12% 0 mm 1007.0 W/m2
14:32 34.4 °C 0.9 °C 999.5 hPa WNW 1.4 km/h 9.7 km/h 12% 0 mm 998.0 W/m2
14:37 34.5 °C 2.1 °C 999.5 hPa NNW 3.2 km/h 6.4 km/h 13% 0 mm 930.0 W/m2
14:42 34.8 °C 1.2 °C 999.2 hPa NNW 4.7 km/h 9.7 km/h 12% 0 mm 940.0 W/m2
14:47 34.9 °C 1.3 °C 999.2 hPa SSW 1.4 km/h 8 km/h 12% 0 mm 932.0 W/m2
14:52 34.8 °C 1.2 °C 999.2 hPa Calm   8 km/h 12% 0 mm 956.0 W/m2
14:57 35 °C 1.4 °C 999.2 hPa NW 1.4 km/h 14.5 km/h 12% 0 mm 958.0 W/m2
15:02 35.3 °C 1.6 °C 999.2 hPa West 1.4 km/h 3.2 km/h 12% 0 mm 944.0 W/m2
15:07 35.4 °C 1.7 °C 998.9 hPa South 1.4 km/h 4.8 km/h 12% 0 mm 932.0 W/m2
15:13 35.7 °C 1.9 °C 998.5 hPa NNW 7.9 km/h 14.5 km/h 12% 0 mm 919.0 W/m2
15:18 35.9 °C 2.1 °C 998.9 hPa West 7.9 km/h 8 km/h 12% 0 mm 905.0 W/m2
15:23 35.8 °C 2 °C 998.5 hPa WSW 11.1 km/h 14.5 km/h 12% 0 mm 911.0 W/m2
15:29 35.6 °C 1.8 °C 998.5 hPa Calm   6.4 km/h 12% 0 mm 912.0 W/m2
15:34 35.5 °C 1.7 °C 998.2 hPa WNW 1.4 km/h 8 km/h 12% 0 mm 879.0 W/m2
15:39 35.4 °C 0.5 °C 998.5 hPa WNW 1.4 km/h 4.8 km/h 11% 0 mm 877.0 W/m2
15:44 35.4 °C 1.7 °C 998.2 hPa NW 4.7 km/h 9.7 km/h 12% 0 mm 854.0 W/m2
15:49 35.6 °C 1.8 °C 998.2 hPa North 3.2 km/h 12.9 km/h 12% 0 mm 837.0 W/m2
15:54 35.8 °C 2 °C 998.2 hPa South 1.4 km/h 9.7 km/h 12% 0 mm 826.0 W/m2
15:59 35.7 °C 1.9 °C 997.9 hPa North 6.4 km/h 11.3 km/h 12% 0 mm 803.0 W/m2
16:04 35.8 °C 2 °C 997.9 hPa North 1.4 km/h 8 km/h 12% 0 mm 780.0 W/m2
16:10 36.2 °C 2.3 °C 997.9 hPa West 4.7 km/h 20.9 km/h 12% 0 mm 717.0 W/m2
16:15 36.3 °C 2.4 °C 997.9 hPa NNW 4.7 km/h 20.9 km/h 12% 0 mm 731.0 W/m2
16:20 36.2 °C 2.3 °C 997.9 hPa West 3.2 km/h 9.7 km/h 12% 0 mm 118.0 W/m2
16:25 35.7 °C 1.9 °C 997.5 hPa WNW 1.4 km/h 3.2 km/h 12% 0 mm 429.0 W/m2
16:30 35.4 °C 2.8 °C 997.9 hPa Calm   11.3 km/h 13% 0 mm 728.0 W/m2
16:35 35.3 °C 2.7 °C 997.5 hPa WNW 1.4 km/h 12.9 km/h 13% 0 mm 694.0 W/m2
16:40 35.4 °C 2.8 °C 997.5 hPa WNW 3.2 km/h 11.3 km/h 13% 0 mm 663.0 W/m2
16:45 35.4 °C 2.8 °C 997.5 hPa North 11.1 km/h 11.3 km/h 13% 0 mm 626.0 W/m2
16:50 35.3 °C 2.7 °C 997.5 hPa Calm   11.3 km/h 13% 0 mm 621.0 W/m2
16:56 35.3 °C 2.7 °C 997.2 hPa SSW 1.4 km/h 11.3 km/h 13% 0 mm 60.0 W/m2
17:01 34.9 °C 2.4 °C 997.5 hPa NNW 3.2 km/h 8 km/h 13% 0 mm 63.0 W/m2
17:06 34.5 °C 2.1 °C 997.2 hPa Calm   3.2 km/h 13% 0 mm 575.0 W/m2
17:11 34.4 °C 2 °C 997.2 hPa NNW 1.4 km/h 11.3 km/h 13% 0 mm 559.0 W/m2
17:16 34.8 °C 2.3 °C 997.2 hPa Calm   4.8 km/h 13% 0 mm 540.0 W/m2
17:21 35.1 °C 2.6 °C 997.2 hPa WSW 3.2 km/h 4.8 km/h 13% 0 mm 526.0 W/m2
17:26 35.3 °C 2.7 °C 997.2 hPa ENE 1.4 km/h 9.7 km/h 13% 0 mm 501.0 W/m2
17:31 35.2 °C 2.6 °C 997.2 hPa NNW 3.2 km/h 12.9 km/h 13% 0 mm 475.0 W/m2
17:36 35 °C 2.5 °C 997.2 hPa North 3.2 km/h 12.9 km/h 13% 0 mm 459.0 W/m2
17:42 34.7 °C 2.2 °C 997.2 hPa Calm   11.3 km/h 13% 0 mm 443.0 W/m2
17:47 34.7 °C 2.2 °C 997.2 hPa WSW 6.4 km/h 8 km/h 13% 0 mm 422.0 W/m2
17:53 34.8 °C 2.3 °C 997.2 hPa WSW 3.2 km/h 17.7 km/h 13% 0 mm 403.0 W/m2
17:58 34.7 °C 2.2 °C 997.2 hPa South 13 km/h 16.1 km/h 13% 0 mm 373.0 W/m2
18:03 34.7 °C 2.2 °C 997.2 hPa Calm   8 km/h 13% 0 mm 360.0 W/m2
18:08 34.9 °C 2.4 °C 997.2 hPa West 4.7 km/h 4.8 km/h 13% 0 mm 343.0 W/m2
18:13 34.9 °C 2.4 °C 997.2 hPa WSW 6.4 km/h 17.7 km/h 13% 0 mm 306.0 W/m2
18:18 34.5 °C 3.1 °C 997.5 hPa SW 1.4 km/h 8 km/h 14% 0 mm 274.0 W/m2
18:23 34.2 °C 2.9 °C 997.5 hPa West 1.4 km/h 11.3 km/h 14% 0 mm 232.0 W/m2
18:29 33.9 °C 2.7 °C 997.5 hPa SSW 9.7 km/h 12.9 km/h 14% 0 mm 230.0 W/m2
18:34 33.8 °C 3.6 °C 997.5 hPa Calm   9.7 km/h 15% 0 mm 213.0 W/m2
18:39 33.8 °C 3.6 °C 997.9 hPa WSW 7.9 km/h 12.9 km/h 15% 0 mm 204.0 W/m2
18:44 33.6 °C 3.4 °C 997.9 hPa West 9.7 km/h 9.7 km/h 15% 0 mm 185.0 W/m2
18:49 33.5 °C 3.3 °C 997.9 hPa NW 6.4 km/h 14.5 km/h 15% 0 mm 149.0 W/m2
18:54 33.3 °C 3.2 °C 997.9 hPa WSW 4.7 km/h 11.3 km/h 15% 0 mm 91.0 W/m2
18:59 33.1 °C 3 °C 997.9 hPa West 11.1 km/h 11.3 km/h 15% 0 mm 58.0 W/m2
19:04 32.9 °C 2.8 °C 997.9 hPa West 1.4 km/h 12.9 km/h 15% 0 mm 54.0 W/m2
19:09 32.6 °C 3.5 °C 998.2 hPa SW 16.3 km/h 20.9 km/h 16% 0 mm 46.0 W/m2
19:14 32.2 °C 3.2 °C 998.2 hPa WSW 3.2 km/h 12.9 km/h 16% 0 mm 39.0 W/m2
19:20 31.9 °C 3 °C 998.5 hPa South 4.7 km/h 8 km/h 16% 0 mm 39.0 W/m2
19:25 31.4 °C 4.2 °C 998.9 hPa South 6.4 km/h 20.9 km/h 18% 0 mm 26.0 W/m2
19:30 30.8 °C 4.5 °C 998.5 hPa SSE 1.4 km/h 17.7 km/h 19% 0 mm 18.0 W/m2
19:35 30.3 °C 4.8 °C 998.9 hPa SW 7.9 km/h 16.1 km/h 20% 0 mm 11.0 W/m2
19:40 29.8 °C 4.4 °C 998.5 hPa SW 4.7 km/h 17.7 km/h 20% 0 mm 5.0 W/m2
19:45 29.6 °C 4.3 °C 998.9 hPa WSW 11.1 km/h 14.5 km/h 20% 0 mm 0.0 W/m2
19:50 29.4 °C 4.1 °C 999.2 hPa SSW 13 km/h 29 km/h 20% 0 mm 0.0 W/m2
19:55 29.2 °C 4.6 °C 999.2 hPa West 16.3 km/h 16.3 km/h 21% 0 mm 0.0 W/m2
20:01 28.8 °C 5 °C 999.2 hPa WSW 1.4 km/h 8 km/h 22% 0 mm 0.0 W/m2
20:06 28.7 °C 4.9 °C 999.2 hPa Calm   1.6 km/h 22% 0 mm 0.0 W/m2
20:11 28.6 °C 4.1 °C 999.2 hPa SW 1.4 km/h 9.7 km/h 21% 0 mm 0.0 W/m2
20:17 28.6 °C 4.1 °C 999.5 hPa SSW 1.4 km/h 8 km/h 21% 0 mm 0.0 W/m2
20:22 28.6 °C 4.1 °C 999.5 hPa South 1.4 km/h 6.4 km/h 21% 0 mm 0.0 W/m2
20:27 28.6 °C 4.1 °C 999.9 hPa Calm   6.4 km/h 21% 0 mm 0.0 W/m2
20:32 28.5 °C 4.7 °C 999.9 hPa SW 1.4 km/h 9.7 km/h 22% 0 mm 0.0 W/m2
20:37 28.4 °C 4.6 °C 1000.2 hPa Calm   3.2 km/h 22% 0 mm 0.0 W/m2
20:42 28.3 °C 4.5 °C 1000.2 hPa WSW 4.7 km/h 12.9 km/h 22% 0 mm 0.0 W/m2
20:47 28.1 °C 4.4 °C 1000.2 hPa SW 1.4 km/h 4.8 km/h 22% 0 mm 0.0 W/m2
20:53 27.9 °C 4.9 °C 1000.6 hPa WSW 6.4 km/h 11.3 km/h 23% 0 mm 0.0 W/m2
20:58 27.7 °C 4.7 °C 1000.6 hPa WSW 7.9 km/h 8 km/h 23% 0 mm 0.0 W/m2
21:04 27.6 °C 4.6 °C 1000.6 hPa Calm   4.8 km/h 23% 0 mm 0.0 W/m2
21:09 27.4 °C 4.4 °C 1000.6 hPa SW 4.7 km/h 8 km/h 23% 0 mm 0.0 W/m2
21:14 27.3 °C 5 °C 1000.9 hPa Calm   8 km/h 24% 0 mm 0.0 W/m2
21:19 27.2 °C 4.9 °C 1000.9 hPa Calm   4.8 km/h 24% 0 mm 0.0 W/m2
21:24 27 °C 4.7 °C 1000.9 hPa SW 1.4 km/h 6.4 km/h 24% 0 mm 0.0 W/m2
21:29 26.9 °C 4.6 °C 1000.9 hPa West 3.2 km/h 11.3 km/h 24% 0 mm 0.0 W/m2
21:34 26.8 °C 5.1 °C 1000.9 hPa WSW 6.4 km/h 8 km/h 25% 0 mm 0.0 W/m2
21:39 26.7 °C 5 °C 1001.2 hPa SSW 3.2 km/h 4.8 km/h 25% 0 mm 0.0 W/m2
21:45 26.6 °C 5 °C 1001.2 hPa Calm   3.2 km/h 25% 0 mm 0.0 W/m2
21:50 26.5 °C 4.9 °C 1001.2 hPa SW 4.7 km/h 11.3 km/h 25% 0 mm 0.0 W/m2
21:55 26.4 °C 4.8 °C 1001.2 hPa SW 1.4 km/h 6.4 km/h 25% 0 mm 0.0 W/m2
22:00 26.3 °C 4.7 °C 1001.2 hPa WSW 4.7 km/h 4.8 km/h 25% 0 mm 0.0 W/m2
22:05 26.1 °C 5.1 °C 1001.2 hPa SW 3.2 km/h 4.8 km/h 26% 0 mm 0.0 W/m2
22:10 26.1 °C 5.1 °C 1001.2 hPa SW 1.4 km/h 8 km/h 26% 0 mm 0.0 W/m2
22:15 25.9 °C 4.9 °C 1000.9 hPa Calm   4.8 km/h 26% 0 mm 0.0 W/m2
22:20 25.9 °C 4.9 °C 1001.2 hPa Calm   4.8 km/h 26% 0 mm 0.0 W/m2
22:26 25.9 °C 4.9 °C 1001.2 hPa SW 1.4 km/h 1.6 km/h 26% 0 mm 0.0 W/m2
22:31 25.9 °C 4.9 °C 1001.2 hPa Calm     26% 0 mm 0.0 W/m2
22:36 25.8 °C 4.8 °C 1001.2 hPa Calm     26% 0 mm 0.0 W/m2
22:41 25.7 °C 4.8 °C 1001.2 hPa Calm   1.6 km/h 26% 0 mm 0.0 W/m2
22:46 25.6 °C 5.2 °C 1001.2 hPa ESE 1.4 km/h 3.2 km/h 27% 0 mm 0.0 W/m2
22:51 25.4 °C 5 °C 1001.2 hPa ESE 1.4 km/h 3.2 km/h 27% 0 mm 0.0 W/m2
22:56 25.3 °C 5 °C 1001.2 hPa SE 1.4 km/h 4.8 km/h 27% 0 mm 0.0 W/m2
23:01 25.2 °C 4.9 °C 1001.2 hPa Calm   3.2 km/h 27% 0 mm 0.0 W/m2
23:06 25.1 °C 4.8 °C 1001.2 hPa Calm   4.8 km/h 27% 0 mm 0.0 W/m2
23:11 24.9 °C 4.6 °C 1001.2 hPa Calm   1.6 km/h 27% 0 mm 0.0 W/m2
23:17 24.8 °C 5.1 °C 1001.2 hPa Calm     28% 0 mm 0.0 W/m2
23:22 24.7 °C 5 °C 1001.6 hPa Calm     28% 0 mm 0.0 W/m2
23:27 24.6 °C 4.9 °C 1001.6 hPa Calm   1.6 km/h 28% 0 mm 0.0 W/m2
23:33 24.5 °C 4.8 °C 1001.6 hPa SE 1.4 km/h 1.6 km/h 28% 0 mm 0.0 W/m2
23:38 24.4 °C 4.7 °C 1001.6 hPa Calm   1.6 km/h 28% 0 mm 0.0 W/m2
23:43 24.3 °C 5.1 °C 1001.6 hPa Calm     29% 0 mm 0.0 W/m2
23:48 24.2 °C 5 °C 1001.6 hPa Calm     29% 0 mm 0.0 W/m2
23:53 24.1 °C 5 °C 1001.6 hPa Calm     29% 0 mm 0.0 W/m2
23:58 23.9 °C 4.8 °C 1001.6 hPa Calm     29% 0 mm 0.0 W/m2
Olympia, Windhoek, Namibia
Compliments of Weather Underground - 3.25 mb